Location: Gwatt
(46.7204°N, 7.6223°E)
Time: 12:05:49
(UTC+00:00)

Transit 2A - Pass Details

Date: 12 May 2021
Orbit: 601 x 958 km, 66.7° (Epoch: 15 June)

Event Time Altitude Azimuth Distance (km) Brightness Sun altitude
Exits shadow 02:13:44 22° 250° (WSW) 1,380 6.8 -14.9°
Maximum altitude 02:16:14 42° 310° (NW) 873 6.3 -14.6°
Drops below altitude 10° 02:20:23 10° 22° (NNE) 1,953 9.3 -14.2°
Sets 02:22:43 0° 30° (NNE) 2,861 10.7 -13.9°
